Showing default

OPS 4947 (TRANSIT 17), 2965

Orbit data source: Space-Track

OPS 4947 (TRANSIT 17), 2965 is a payload satellite owned by USN NAVAIR (US) in LEO that was launched on Mon, 25 Sep 1967 UTC via an SCOUT A launch vehicle from the Air Force Western Test Range (AFWTR). Payloads include a variety of satellites, spacecraft, and rockets equipped with specific instruments for various scientific and technological missions. These include communications satellites like Starlink; space stations such as the ISS; scientific satellites like the Hubble; Earth observation satellites from companies like Planet Labs, Umbra, and HawkEye 360; GPS; miniature CubeSats for education and research; and military/defense satellites.

Loading next visibility...
OPS 4947 (TRANSIT 17) details
Identifier
2965, 1967-092A
Orbit
LEO
Last TLE update8 hours ago
Origin
Flag of USUSN NAVAIR (US)
ManufacturerAPL
MissionDefense Navigation
Bus & MotorTRANSIT 5, Unknown motor
Mass~50 kg wet, ~50 kg dry
Launch date (UTC)
1967-09-25 (57 years ago)
Launch vehicle
SCOUT A
Launch site
Air Force Western Test Range (AFWTR)
Object type
Payload
Rocket body
Debris
Shape & HBROct Cyl + 4 Pan + 1 Rod, Unknown HBR
Radar Cross Section7.565 m², Large (>1 m²)

Expand to show TLE details & history

TLE from 8 hours ago
0 OPS 4947 (TRANSIT 17)
1 02965U 67092A   25024.62878274  .00000253  00000-0  35629-3 0  9991
2 02965  89.2337  49.1389 0049700  91.5061  26.2938 13.53351660827406
Epoch: 2025-01-24T15:05Z
Definitive object data (Epoch: 2025-01-24T15:05:26.828Z)
Latitude62.02453°
Longitude-122.84757°
Altitude1,037.551 km
Speed7.355 km/s
True Right ascension15h 10m 48s
True Declination61° 53' 14"
Sunlit
Object was in daylight at TLE epoch
Visualization TLE readout
Latitude-37.61398°
Longitude57.9742°
Altitude1,096.888 km
Speed7.292 km/s
Apparent Right ascension06h 54m 59s
Apparent Declination-65° 30' 57"
Sunlit
Object is in daylight
Visualization observer readout
Local Sidereal Time00:29:38
Azimuth148.366° SSE
Elevation-38.247°
Doppler factor1
Orbital elements
Apogee altitude1,093.952 km
Perigee altitude1,020.046 km
Semi-major axis7,435.136 km
Eccentricity0.00497
Inclination89.2337°
RAAN49.1389°
Arg. of periapsis91.5061°
True anomaly26.54749°
Mean anomaly26.2938°
Eccentric anomaly26.42051°
Mean motion3.3854 °/min
BSTAR0.00035629
Orbital period106.34 mins
Loading maneuver chart data...
Loading historical data...
Loading historical data...
Loading historical data...
Loading historical data...
Loading historical data...
Loading historical data...
Loading historical data...

OPS 4947 (TRANSIT 17) Visibility forecast

Observer location: undefined°, undefined

Span
Click to sort rows by Start time (UTC) header in descending order
Start Az.
Max El. time (UTC)
Max El. Az.
Max El.
End time (UTC)
End Az.
11 mins2025-01-25 01:16:01.363Z149.587° SSE2025-01-25 01:22:01.363Z69.377° E34.846°2025-01-25 01:27:01.363Z13.597° NNE
9 mins2025-01-25 03:04:01.363Z230.921° WSW2025-01-25 03:08:01.363Z278.721° WNW24.672°2025-01-25 03:13:01.363Z333.385° NNW
7 mins2025-01-25 12:26:01.363Z44.432° NE2025-01-25 12:29:01.363Z77.377° E18.831°2025-01-25 12:33:01.363Z119.115° SE
11 mins2025-01-25 14:11:01.363Z350.885° N2025-01-25 14:16:01.363Z269.039° W41.253°2025-01-25 14:22:01.363Z197.667° SSW
|